This is the latest recevied weather packets stored in our database for station/object K7ZQU-7. If no packets are shown the sender has not sent any weather packets the latest 10 day(s).
| Time | Temp. | Humidity | Pressure | Rain* | Wind** | Luminosity | Snow |
|---|---|---|---|---|---|---|---|
| 1777663866 | 17.78° C | 33% | 1016.3 hPa | 0 mm | 1.34 m/s, 162° | - | - |
| 1777663564 | 17.78° C | 34% | 1016.3 hPa | 0 mm | 1.34 m/s, 125° | - | - |
| 1777663265 | 17.78° C | 34% | 1016.3 hPa | 0 mm | 0.89 m/s, 6° | - | - |
| 1777662966 | 17.78° C | 33% | 1016.4 hPa | 0 mm | 2.24 m/s, 195° | - | - |
| 1777662667 | 17.22° C | 35% | 1016.4 hPa | 0 mm | 0.89 m/s, 148° | - | - |
| 1777662368 | 17.22° C | 36% | 1016.5 hPa | 0 mm | 0.45 m/s, 7° | - | - |
| 1777661767 | 16.67° C | 37% | 1016.5 hPa | 0 mm | 2.68 m/s, 117° | - | - |
| 1777661468 | 16.67° C | 37% | 1016.4 hPa | 0 mm | 0.89 m/s, 98° | - | - |
| 1777661169 | 16.11° C | 38% | 1016.5 hPa | 0 mm | 0.89 m/s, 94° | - | - |
| 1777660568 | 16.11° C | 38% | 1016.6 hPa | 0 mm | 1.34 m/s, 122° | - | - |
| 1777659971 | 16.11° C | 40% | 1016.5 hPa | 0 mm | 1.34 m/s, 191° | - | - |
| 1777659373 | 15.56° C | 40% | 1016.4 hPa | 0 mm | 0.89 m/s, 87° | - | - |
| 1777658772 | 15° C | 39% | 1016.5 hPa | 0 mm | 1.79 m/s, 111° | - | - |
| 1777658473 | 15° C | 41% | 1016.4 hPa | 0 mm | 0.89 m/s, 195° | - | - |
| 1777658174 | 14.44° C | 41% | 1016.4 hPa | 0 mm | 0.89 m/s, 13° | - | - |
| 1777657875 | 14.44° C | 41% | 1016.4 hPa | 0 mm | 0.89 m/s, 122° | - | - |
| 1777657573 | 14.44° C | 40% | 1016.4 hPa | 0 mm | 0.45 m/s, 191° | - | - |
| 1777657274 | 14.44° C | 41% | 1016.4 hPa | 0 mm | 0.89 m/s, 35° | - | - |
| 1777656075 | 13.89° C | 42% | 1016.3 hPa | 0 mm | 0.89 m/s, 113° | - | - |
| 1777655776 | 13.33° C | 42% | 1016.3 hPa | 0 mm | 0.89 m/s, 153° | - | - |
| 1777655477 | 13.33° C | 43% | 1016.3 hPa | 0 mm | 1.34 m/s, 260° | - | - |
| 1777655178 | 12.78° C | 43% | 1016.2 hPa | 0 mm | 0.89 m/s, 150° | - | - |
| 1777654879 | 12.78° C | 42% | 1016.2 hPa | 0 mm | 1.79 m/s, 63° | - | - |
| 1777654577 | 12.22° C | 44% | 1016.2 hPa | 0 mm | 0.89 m/s, 117° | - | - |
| 1777654278 | 12.22° C | 45% | 1016.2 hPa | 0 mm | 0.45 m/s, 150° | - | - |
* Rain latest hour (hover to see other rain measurements)
** Current wind speed in m/s (hover to see current wind gust speed)